Погода в Новосиле

Россия / Орловская область     52°58′28″N   37°02′37″E
темп.,
°C
ветер,
м/с
пор.,
м/с
влажн.,
%
обл.,
%
осадки,
мм/ч
давл.,
гПа
погр.,
м
28 ноября, вс
вс2800:00+3ю51298100 0.0 1003400
03:00+4ю61398100 0.0 1003358
06:00+5юз5992100 0.0 1004368
09:00+3ююз38943 0.0 1006166
12:00+4зюз388452 0.0 1007364
15:00+4ююз238229 0.0 100864
18:00+3ююв3491100 0.0 100962
21:00+4ююв4995100 0.0 1009213
29 ноября, пн
пн2900:00+4ююв51093100 0.0 1008398
03:00+4юв51293100 0.0 1007295
06:00+4вюв41097100 0.0 1004222
09:00+5в4999100 1.4 1002179
12:00+5вюв4998100 0.2 999345
15:00+5ююв3999100 0.8 997273
18:00+7ююв41199100 0.0 994327
21:00+7в51199100 2.8 988353
30 ноября, вт
вт3000:00+8вюв51198100 7.4 980446
03:00+7юз61396100 10.9 976600
06:00+7юз71296100 3.2 974638
09:00+1зюз152196100 5.9 979741
12:00+1зюз132296100 3.5 9861150
15:00+1зюз121882100 3.8 9881237
18:00+1юз11178296 0.1 9891253
21:000зюз8148789 0.3 9891184
1 декабря, ср
ср100:00−1зюз9138483 0.1 990959
03:00−2зюз8138697 0.4 992973
06:00−2з91493100 0.9 9921054
09:00−2з81380100 1.0 9941044
12:00−2з81181100 0.1 9961046
15:00−2з7118097 0.1 9971116
18:00−3з6118368 0.0 999724
21:00−4з5108725 0.0 1000584
2 декабря, чт
чт200:00−5з5109041 0.0 1001491
03:00−5юз4891100 0.0 1003326
06:00−4ю4119199 0.0 1002415
09:00−2ю71596100 0.2 1000587
12:00+1ююз81597100 1.6 999775
15:00+1юз71598100 1.8 1000547
18:00+2юз71597100 0.0 1001579
21:00+2юз71490100 0.0 1003625